Home > Weather > Rochester > Past weeks

Flag for USA Past Weather in Rochester, New York, USA — Yesterday and Last 2 Weeks

Now
76 °F

Passing clouds.


Feels Like: 77 °F
Forecast: 69 / 79 °F
Wind: 7 mph from Southwest

Location: Greater Rochester International Airport

Current Time: May 29, 2016 at 1:48:39 AM

Latest Report: May 29, 2016 at 12:54 AM


Visibility: 10 mi

Pressure: 30.07 "Hg

Humidity: 72%

Dew Point: 66 °F

Location of RochesterLocation

Past Weather in Rochester — Graph

°F

Rochester Temperature Yesterday

Maximum temperature yesterday: 91 °F (at 1:54 PM)
Minimum temperature yesterday: 65 °F (at 3:54 AM)
Average temperature yesterday: 78 °F

High & Low Weather Summary for the Past Weeks

 TemperatureHumidityPressure
High91 °F (May 28, 1:54 PM)97% (May 17, 2:54 AM)30.31 "Hg (May 17, 2:54 AM)
Low37 °F (May 16, 12:54 AM)18% (May 24, 4:54 PM)29.54 "Hg (May 14, 1:54 PM)
Average61 °F60%30.03 "Hg
* Reported May 14 12:54 AM — May 29 12:54 AM, Rochester, Weather by CustomWeather, © 2016

Note: Actual official high and low records may vary slightly from our data, if they occured in-between our weather recording intervals... More about our weather records

Advertising

Rochester Weather History for the Previous 24 Hours

Scroll right to see more
 ConditionsComfort  
Time TempWeatherWind HumidityBarometerVisibility
12:54 AM
Sun, May 29
76 °FPassing clouds.7 mph72%30.07 "Hg10 mi
11:54 PM
Sat, May 28
76 °FPassing clouds.6 mph72%30.07 "Hg10 mi
10:54 PM76 °FPassing clouds.5 mph72%30.07 "Hg10 mi
9:54 PM78 °FPartly cloudy.6 mph66%30.08 "Hg10 mi
8:54 PM81 °FPartly sunny.7 mph58%30.07 "Hg10 mi
7:54 PM84 °FBroken clouds.10 mph55%30.07 "Hg10 mi
6:54 PM86 °FScattered clouds.7 mph53%30.04 "Hg10 mi
5:54 PM88 °FScattered clouds.5 mph46%30.03 "Hg10 mi
4:54 PM89 °FScattered clouds.7 mph45%30.05 "Hg10 mi
3:54 PM86 °FScattered clouds.5 mph53%30.07 "Hg10 mi
2:54 PM82 °FBroken clouds.8 mph63%30.09 "Hg10 mi
1:54 PM91 °FBroken clouds.5 mph42%30.07 "Hg10 mi
12:54 PM88 °FBroken clouds.9 mph45%30.09 "Hg10 mi
11:54 AM87 °FPartly sunny.7 mph50%30.09 "Hg10 mi
10:54 AM85 °FPartly sunny.6 mph53%30.09 "Hg10 mi
9:54 AM81 °FPartly sunny.6 mph60%30.08 "Hg10 mi
8:54 AM77 °FScattered clouds.7 mph66%30.08 "Hg10 mi
7:54 AM73 °FPassing clouds.8 mph74%30.08 "Hg10 mi
6:54 AM68 °FPassing clouds.6 mph87%30.07 "Hg10 mi
5:54 AM65 °FPassing clouds.6 mph91%30.07 "Hg10 mi
4:54 AM66 °FClear.5 mph90%30.06 "Hg10 mi
3:54 AM65 °FClear.5 mph91%30.05 "Hg10 mi
2:54 AM66 °FClear.No wind84%30.03 "Hg10 mi
1:54 AM66 °FClear.No wind87%30.04 "Hg10 mi
Weather by CustomWeather, © 2016

See weather overviewHow to use our weather pages